Regional Weather Roundup
Issued by NWS Binghamton, NY

Home | Current Version | Previous Version | Text Only | Print | Product List | Glossary On
Versions: 1 2 3 4 5 6 7 8 9 10 11 12 13 14 15 16 17 18 19 20 21 22 23 24 25 26 27 28 29 30 31 32 33 34 35 36 37 38 39 40 41 42 43 44 45 46 47 48 49 50
000
ASUS41 KBGM 252110
RWRBGM

REGIONAL WEATHER ROUNDUP
NATIONAL WEATHER SERVICE BINGHAMTON NY
500 PM EDT TUE JUL 25 2017

Note: "fair" indicates few or no clouds below 12,000 feet with no
significant weather and/or obstructions to visibility.

* = Station(s) that does not report precipitation, such as rain,
snow, etc, also no thunder or fog.

NYZ009-015>018-022>025-036-037-044>046-055>057-062-252200
...Central New York...

CITY           SKY/WX    TMP DP  RH WIND       PRES   REMARKS
Binghamton     CLOUDY    62  59  90 NW10      30.18R
Cortland       CLOUDY    61  59  94 NW3       30.19R FOG
Dansville      CLOUDY    63  56  78 CALM      30.23R
Elmira         PTSUNNY   67  58  72 N7        30.18S
Seneca Falls   CLOUDY    61  61 100 NW7       30.20S
Ithaca         LGT RAIN  60  59  96 NW9       30.21R FOG
Hamilton       CLOUDY    64  57  77 N5        30.18R
Hornell        CLOUDY    61  57  88 N6        30.26S
Monticello     NOT AVBL
Norwich        CLOUDY    64  61  88 N3        30.17S
Oneonta        DRIZZLE   61 N/A N/A CALM      30.18S
Penn Yan       CLOUDY    64  56  75 N6        30.21S
Rome           CLOUDY    67  60  78 SE6       30.17R
Sidney         CLOUDY    68  68 100 CALM      30.16S
Syracuse       CLOUDY    64  60  87 W9        30.16R
$$

PAZ038>040-043-044-047-048-072-252200
...Northeast Pennsylvania...

CITY           SKY/WX    TMP DP  RH WIND       PRES   REMARKS
Hazleton         N/A     63  59  88 N3        30.21S
Scranton       CLOUDY    72  61  68 VRB5      30.15F
$$
&&
KEY
WCI = Wind Chill Index
VSB = Visibility
HX  = Heat Index
$$



USA.gov is the U.S. government's official web portal to all federal, state and local government web resources and services.